Location: Vigo di Fassa
(46.4167°N, 11.6667°E)
Time: 20:25:42
(UTC+00:00)

Cosmos 2322 Rocket - Pass Details

Date: 03 March 2021
Orbit: 832 x 852 km, 71.0° (Epoch: 21 April)

Event Time Altitude Azimuth Distance (km) Brightness Sun altitude
Rises 17:22:45 0° 185° (S) 3,361 5.5 -4.3°
Reaches altitude 10° 17:25:15 10° 179° (S) 2,432 4.7 -4.7°
Maximum altitude 17:30:31 45° 108° (ESE) 1,120 2.5 -5.7°
Drops below altitude 10° 17:35:51 10° 37° (NE) 2,453 4.2 -6.6°
Sets 17:38:22 0° 32° (NNE) 3,394 5.0 -7.0°
